Simultaneous Nadir Overpasses (SNOs) Predictions

Prediction of SNOs between METOP-B and NPP Satellite Orbit:

Table of predicted SNOs for the next 14.0 days since TLE Epoch: 9/12/2014
Index Date (METOP-B) Time (METOP-B) Lat,Lon (METOP-B) SZA (METOP-B ) Date (NPP) Time (NPP) Lat,Lon (NPP) SZA (NPP ) Distance(km) Time Diff (sec)
1 09/14/2014 07:02:18 73.81, 68.65 70.37 09/14/2014 07:01:10 73.85, 66.15 70.49 77.52 68
2 09/14/2014 07:53:01 -73.75,-124.16 109.68 09/14/2014 07:51:52 -73.77,-126.34 109.59 67.71 69
3 09/14/2014 08:43:45 73.54, 42.68 70.14 09/14/2014 08:42:33 73.50, 41.59 70.15 34.60 72
4 09/14/2014 09:34:29 -73.43,-150.24 109.95 09/14/2014 09:33:16 -73.47,-151.02 109.88 25.15 73
5 09/14/2014 10:25:12 73.27, 16.72 69.91 09/14/2014 10:23:58 73.26, 16.77 69.91 2.05 74
6 09/14/2014 11:15:54 -73.26,-175.97 110.09 09/14/2014 11:14:42 -73.28,-175.96 110.06 1.75 72
7 09/14/2014 12:06:34 73.24, -8.67 69.92 09/14/2014 12:05:28 73.26, -8.61 69.94 2.56 66
8 09/14/2014 12:57:15 -73.29, 158.75 110.03 09/14/2014 12:56:12 -73.28, 158.66 110.03 3.00 63
9 09/14/2014 13:47:55 73.27, -33.95 69.97 09/14/2014 13:46:58 73.26, -33.99 69.97 1.65 57
10 09/14/2014 14:38:37 -73.26, 133.36 110.03 09/14/2014 14:37:42 -73.28, 133.28 110.00 3.21 55
11 09/14/2014 15:29:17 73.25, -59.34 69.97 09/14/2014 15:28:28 73.26, -59.37 70.00 2.21 49
12 09/14/2014 16:19:59 -73.24, 107.97 110.02 09/14/2014 16:19:11 -73.23, 108.01 110.03 1.48 48
13 09/14/2014 17:10:39 73.22, -84.73 69.98 09/14/2014 17:09:57 73.22, -84.64 69.97 2.92 42
14 09/14/2014 18:01:21 -73.22, 82.58 110.02 09/14/2014 18:00:41 -73.24, 82.63 110.00 2.76 40
15 09/14/2014 18:52:00 73.25,-110.01 70.03 09/14/2014 18:51:27 73.22,-110.02 70.01 3.39 33
16 09/14/2014 19:42:42 -73.24, 57.30 109.97 09/14/2014 19:42:11 -73.24, 57.25 109.97 1.67 31
17 09/14/2014 20:33:22 73.23,-135.40 70.04 09/14/2014 20:32:57 73.22,-135.41 70.04 0.45 25
18 09/14/2014 21:24:04 -73.22, 31.91 109.96 09/14/2014 21:23:41 -73.24, 31.87 109.93 2.83 23
19 09/14/2014 22:14:44 73.20,-160.79 70.04 09/14/2014 22:14:27 73.23,-160.79 70.07 2.51 17
20 09/14/2014 23:05:26 -73.20, 6.52 109.96 09/14/2014 23:05:10 </
